AAL2785 KLAX-KLAS

Flight info

Callsign AAL2785
Flight time 0h 42m
Altitude 29000
Route ORCKA5 MISEN RNDRZ4
Aircraft A321/M-SDE3FGHIRWY/LB1

Departure

Time 2026-05-04 01:00
Airport Los Angeles International Airport (KLAX)

Arrival

Time 2026-05-04 01:42
Airport Harry Reid International Airport (KLAS)
Time Latitude Longitude Altitude Speed Heading
2026-05-04 00:33 33.94000 -118.40597 93 ft 0 kts 294°
2026-05-04 00:42 33.93995 -118.40572 94 ft 3 kts 237°
2026-05-04 00:42 33.94009 -118.40557 93 ft 3 kts 189°
2026-05-04 00:43 33.94021 -118.40556 92 ft 2 kts 173°
2026-05-04 00:43 33.94022 -118.40556 92 ft 0 kts 173°
2026-05-04 00:46 33.94020 -118.40555 92 ft 1 kts 173°
2026-05-04 00:46 33.94010 -118.40554 91 ft 0 kts 173°
2026-05-04 00:47 33.94007 -118.40554 93 ft 1 kts 173°
2026-05-04 00:48 33.93995 -118.40551 94 ft 2 kts 171°
2026-05-04 00:48 33.93974 -118.40548 96 ft 4 kts 171°
2026-05-04 00:48 33.93946 -118.40543 95 ft 5 kts 171°
2026-05-04 00:48 33.93912 -118.40536 95 ft 5 kts 171°
2026-05-04 00:49 33.93872 -118.40529 95 ft 6 kts 171°
2026-05-04 00:49 33.93836 -118.40508 96 ft 6 kts 126°
2026-05-04 00:49 33.93831 -118.40462 98 ft 6 kts 86°
2026-05-04 00:49 33.93836 -118.40409 95 ft 7 kts 82°
2026-05-04 00:50 33.93843 -118.40347 96 ft 8 kts 83°
2026-05-04 00:50 33.93850 -118.40278 96 ft 9 kts 82°
2026-05-04 00:50 33.93859 -118.40197 96 ft 10 kts 83°
2026-05-04 00:50 33.93869 -118.40107 97 ft 11 kts 83°
2026-05-04 00:51 33.93879 -118.40009 96 ft 12 kts 83°
2026-05-04 00:51 33.93889 -118.39901 96 ft 14 kts 84°
2026-05-04 00:51 33.93900 -118.39780 98 ft 15 kts 83°
2026-05-04 00:51 33.93913 -118.39648 96 ft 16 kts 83°
2026-05-04 00:52 33.93929 -118.39508 96 ft 17 kts 82°
2026-05-04 00:52 33.93944 -118.39357 94 ft 19 kts 83°
2026-05-04 00:52 33.93961 -118.39194 95 ft 20 kts 83°
2026-05-04 00:52 33.93978 -118.39026 94 ft 20 kts 83°
2026-05-04 00:53 33.93996 -118.38855 94 ft 21 kts 83°
2026-05-04 00:53 33.94014 -118.38676 96 ft 22 kts 83°
2026-05-04 00:53 33.94033 -118.38495 96 ft 22 kts 83°
2026-05-04 00:53 33.94051 -118.38309 98 ft 23 kts 83°
2026-05-04 00:54 33.94067 -118.38148 94 ft 13 kts 83°
2026-05-04 00:54 33.94077 -118.38064 93 ft 5 kts 82°
2026-05-04 00:54 33.94074 -118.38027 93 ft 3 kts 109°
2026-05-04 00:54 33.94073 -118.38025 93 ft 0 kts 114°
2026-05-04 00:58 33.94072 -118.38025 93 ft 1 kts 114°
2026-05-04 00:58 33.94063 -118.38012 94 ft 3 kts 140°
2026-05-04 00:58 33.94031 -118.38001 93 ft 6 kts 169°
2026-05-04 00:59 33.93991 -118.38007 94 ft 5 kts 219°
2026-05-04 00:59 33.93984 -118.38034 93 ft 0 kts 261°
2026-05-04 00:59 33.93978 -118.38077 94 ft 28 kts 262°
2026-05-04 00:59 33.93924 -118.38611 100 ft 98 kts 263°
2026-05-04 01:00 33.93815 -118.39667 100 ft 152 kts 263°
2026-05-04 01:00 33.93674 -118.41013 468 ft 167 kts 262°
2026-05-04 01:00 33.93538 -118.42429 1125 ft 171 kts 264°
2026-05-04 01:00 33.93460 -118.43855 1924 ft 172 kts 266°
2026-05-04 01:01 33.93374 -118.45350 2395 ft 192 kts 260°
2026-05-04 01:01 33.92913 -118.46951 2722 ft 215 kts 248°
2026-05-04 01:01 33.92312 -118.48710 2983 ft 239 kts 247°
2026-05-04 01:01 33.91628 -118.50598 3538 ft 250 kts 247°
2026-05-04 01:02 33.90922 -118.52527 4323 ft 254 kts 246°
2026-05-04 01:02 33.90213 -118.54479 5136 ft 256 kts 247°
2026-05-04 01:02 33.89502 -118.56461 5908 ft 260 kts 248°
2026-05-04 01:02 33.88784 -118.58483 6622 ft 264 kts 248°
2026-05-04 01:03 33.88066 -118.60526 7398 ft 266 kts 247°
2026-05-04 01:03 33.87355 -118.62558 8335 ft 267 kts 246°
2026-05-04 01:03 33.86586 -118.64605 9237 ft 271 kts 238°
2026-05-04 01:03 33.85306 -118.66271 10082 ft 275 kts 214°
2026-05-04 01:04 33.83529 -118.67146 10902 ft 282 kts 191°
2026-05-04 01:04 33.81557 -118.66980 11688 ft 292 kts 164°
2026-05-04 01:04 33.79802 -118.65697 12474 ft 306 kts 138°
2026-05-04 01:04 33.78654 -118.63457 12889 ft 333 kts 110°
2026-05-04 01:05 33.78472 -118.60582 13120 ft 363 kts 83°
2026-05-04 01:05 33.79402 -118.57742 13482 ft 380 kts 57°
2026-05-04 01:05 33.81139 -118.55307 14019 ft 388 kts 43°
2026-05-04 01:05 33.83241 -118.53239 14598 ft 393 kts 35°
2026-05-04 01:06 33.85480 -118.51306 15175 ft 399 kts 34°
2026-05-04 01:06 33.87736 -118.49331 15705 ft 405 kts 35°
2026-05-04 01:06 33.89966 -118.47221 16219 ft 410 kts 37°
2026-05-04 01:06 33.92147 -118.44969 16731 ft 417 kts 41°
2026-05-04 01:07 33.94008 -118.42270 17200 ft 424 kts 56°
2026-05-04 01:07 33.95591 -118.39292 17688 ft 430 kts 56°
2026-05-04 01:07 33.97238 -118.36267 18171 ft 435 kts 55°
2026-05-04 01:07 33.98943 -118.33220 18574 ft 441 kts 54°
2026-05-04 01:08 34.00687 -118.30152 18988 ft 446 kts 54°
2026-05-04 01:08 34.02457 -118.27063 19424 ft 450 kts 53°
2026-05-04 01:08 34.04245 -118.23945 19901 ft 454 kts 54°
2026-05-04 01:08 34.06046 -118.20794 20376 ft 458 kts 54°
2026-05-04 01:09 34.07857 -118.17609 20809 ft 463 kts 54°
2026-05-04 01:09 34.09679 -118.14390 21234 ft 468 kts 54°
2026-05-04 01:09 34.11522 -118.11129 21635 ft 472 kts 54°
2026-05-04 01:09 34.13381 -118.07838 22052 ft 477 kts 54°
2026-05-04 01:10 34.15228 -118.04558 22436 ft 481 kts 54°
2026-05-04 01:10 34.17117 -118.01198 22856 ft 485 kts 54°
2026-05-04 01:10 34.19018 -117.97811 23269 ft 490 kts 54°
2026-05-04 01:10 34.20935 -117.94394 23643 ft 494 kts 53°
2026-05-04 01:11 34.22867 -117.90952 24003 ft 497 kts 53°
2026-05-04 01:11 34.24818 -117.87477 24292 ft 501 kts 53°
2026-05-04 01:11 34.26778 -117.83984 24640 ft 504 kts 53°
2026-05-04 01:11 34.28748 -117.80471 24995 ft 506 kts 53°
2026-05-04 01:12 34.30730 -117.76937 25363 ft 509 kts 53°
2026-05-04 01:12 34.32718 -117.73380 25778 ft 512 kts 53°
2026-05-04 01:12 34.34715 -117.69800 26163 ft 515 kts 53°
2026-05-04 01:12 34.36714 -117.66264 26484 ft 517 kts 52°
2026-05-04 01:13 34.38805 -117.62702 26776 ft 520 kts 51°
2026-05-04 01:13 34.40940 -117.59164 27047 ft 522 kts 50°
2026-05-04 01:13 34.43107 -117.55618 27356 ft 525 kts 50°
2026-05-04 01:13 34.45283 -117.52049 27686 ft 527 kts 50°
2026-05-04 01:14 34.47457 -117.48458 28056 ft 530 kts 50°
2026-05-04 01:14 34.49625 -117.44837 28374 ft 531 kts 50°
2026-05-04 01:14 34.51783 -117.41200 28761 ft 532 kts 50°
2026-05-04 01:14 34.53936 -117.37549 28905 ft 532 kts 50°
2026-05-04 01:15 34.56083 -117.33898 28937 ft 532 kts 50°
2026-05-04 01:15 34.60384 -117.26604 28931 ft 531 kts 50°
2026-05-04 01:16 34.64663 -117.19371 28904 ft 531 kts 50°
2026-05-04 01:16 34.68968 -117.12084 28817 ft 531 kts 50°
2026-05-04 01:17 34.73262 -117.04797 28805 ft 530 kts 50°
2026-05-04 01:17 34.77546 -116.97500 28791 ft 530 kts 51°
2026-05-04 01:18 34.81793 -116.90235 28790 ft 530 kts 51°
2026-05-04 01:18 34.86067 -116.82908 28805 ft 530 kts 51°
2026-05-04 01:19 34.90344 -116.75584 28802 ft 531 kts 51°
2026-05-04 01:19 34.94598 -116.68233 28798 ft 531 kts 52°
2026-05-04 01:20 34.98783 -116.60812 28785 ft 531 kts 52°
2026-05-04 01:20 35.02920 -116.53416 28611 ft 532 kts 52°
2026-05-04 01:20 35.05024 -116.49665 27329 ft 539 kts 52°
2026-05-04 01:21 35.07124 -116.45923 26269 ft 532 kts 53°
2026-05-04 01:21 35.09174 -116.42269 25942 ft 507 kts 52°
2026-05-04 01:21 35.11347 -116.38912 25614 ft 505 kts 43°
2026-05-04 01:21 35.13752 -116.35789 25142 ft 505 kts 42°
2026-05-04 01:22 35.16166 -116.32682 24725 ft 503 kts 42°
2026-05-04 01:22 35.18542 -116.29634 24277 ft 501 kts 42°
2026-05-04 01:22 35.20936 -116.26556 23830 ft 498 kts 43°
2026-05-04 01:22 35.23310 -116.23483 23331 ft 496 kts 43°
2026-05-04 01:23 35.25640 -116.20384 22827 ft 493 kts 45°
2026-05-04 01:23 35.27916 -116.17271 22353 ft 488 kts 46°
2026-05-04 01:23 35.30144 -116.14170 21889 ft 482 kts 46°
2026-05-04 01:23 35.32341 -116.11096 21413 ft 476 kts 47°
2026-05-04 01:24 35.34514 -116.08069 20948 ft 471 kts 47°
2026-05-04 01:24 35.36662 -116.05101 20648 ft 462 kts 47°
2026-05-04 01:24 35.38757 -116.02224 20316 ft 454 kts 47°
2026-05-04 01:24 35.40807 -115.99414 20166 ft 427 kts 47°
2026-05-04 01:25 35.42727 -115.96776 19794 ft 405 kts 47°
2026-05-04 01:25 35.44574 -115.94234 19158 ft 393 kts 47°
2026-05-04 01:25 35.46359 -115.91769 18557 ft 380 kts 48°
2026-05-04 01:25 35.48091 -115.89377 17920 ft 370 kts 49°
2026-05-04 01:26 35.49789 -115.87032 17582 ft 367 kts 49°
2026-05-04 01:26 35.51496 -115.84677 17342 ft 369 kts 49°
2026-05-04 01:26 35.53188 -115.82336 16970 ft 364 kts 50°
2026-05-04 01:26 35.54860 -115.80021 16592 ft 361 kts 50°
2026-05-04 01:27 35.56494 -115.77758 16222 ft 357 kts 50°
2026-05-04 01:27 35.58125 -115.75501 15979 ft 349 kts 50°
2026-05-04 01:27 35.59721 -115.73295 15898 ft 344 kts 50°
2026-05-04 01:27 35.61323 -115.71110 15753 ft 345 kts 49°
2026-05-04 01:28 35.62933 -115.68937 15577 ft 343 kts 50°
2026-05-04 01:28 35.64539 -115.66779 15409 ft 341 kts 49°
2026-05-04 01:28 35.66140 -115.64628 15235 ft 341 kts 50°
2026-05-04 01:28 35.67733 -115.62483 15053 ft 339 kts 50°
2026-05-04 01:29 35.69301 -115.60363 14896 ft 339 kts 49°
2026-05-04 01:29 35.70883 -115.58220 14724 ft 338 kts 49°
2026-05-04 01:29 35.72506 -115.56133 14546 ft 337 kts 42°
2026-05-04 01:29 35.74413 -115.54456 14385 ft 338 kts 30°
2026-05-04 01:30 35.76459 -115.53035 14211 ft 337 kts 30°
2026-05-04 01:30 35.78501 -115.51612 14042 ft 337 kts 30°
2026-05-04 01:30 35.80536 -115.50191 13852 ft 335 kts 30°
2026-05-04 01:30 35.82553 -115.48778 13564 ft 331 kts 30°
2026-05-04 01:31 35.84555 -115.47373 13498 ft 333 kts 30°
2026-05-04 01:31 35.86565 -115.45960 13084 ft 333 kts 31°
2026-05-04 01:31 35.88542 -115.44570 12861 ft 327 kts 30°
2026-05-04 01:31 35.90529 -115.43171 12990 ft 332 kts 31°
2026-05-04 01:32 35.92551 -115.41749 12675 ft 338 kts 30°
2026-05-04 01:32 35.94588 -115.40325 12328 ft 335 kts 30°
2026-05-04 01:32 35.96621 -115.38909 11899 ft 335 kts 30°
2026-05-04 01:32 35.98586 -115.37401 11499 ft 332 kts 41°
2026-05-04 01:33 36.00120 -115.35318 11128 ft 326 kts 60°
2026-05-04 01:33 36.01057 -115.32822 10779 ft 316 kts 79°
2026-05-04 01:33 36.01358 -115.30191 10527 ft 306 kts 95°
2026-05-04 01:33 36.01241 -115.27588 10266 ft 303 kts 98°
2026-05-04 01:34 36.01113 -115.25027 10030 ft 303 kts 98°
2026-05-04 01:34 36.00986 -115.22437 9762 ft 301 kts 98°
2026-05-04 01:34 36.00858 -115.19865 9489 ft 300 kts 98°
2026-05-04 01:34 36.00731 -115.17338 9366 ft 289 kts 98°
2026-05-04 01:35 36.00612 -115.14906 9244 ft 279 kts 98°
2026-05-04 01:35 36.00497 -115.12559 9122 ft 270 kts 98°
2026-05-04 01:35 36.00384 -115.10276 8998 ft 264 kts 99°
2026-05-04 01:35 36.00268 -115.08018 8737 ft 263 kts 99°
2026-05-04 01:36 36.00152 -115.05800 8498 ft 262 kts 99°
2026-05-04 01:36 36.00037 -115.03570 8262 ft 260 kts 99°
2026-05-04 01:36 35.99921 -115.01341 8014 ft 259 kts 98°
2026-05-04 01:36 35.99860 -114.99116 7677 ft 257 kts 97°
2026-05-04 01:37 35.99850 -114.96941 7358 ft 250 kts 97°
2026-05-04 01:37 35.99853 -114.94812 7044 ft 244 kts 95°
2026-05-04 01:37 36.00212 -114.92799 6716 ft 246 kts 66°
2026-05-04 01:37 36.01340 -114.91196 6398 ft 252 kts 37°
2026-05-04 01:38 36.02936 -114.90302 6063 ft 254 kts 11°
2026-05-04 01:38 36.04683 -114.90363 5633 ft 253 kts 340°
2026-05-04 01:38 36.06189 -114.91400 5188 ft 244 kts 309°
2026-05-04 01:38 36.07101 -114.93056 4966 ft 226 kts 282°
2026-05-04 01:39 36.07366 -114.94879 4731 ft 209 kts 262°
2026-05-04 01:39 36.07365 -114.96634 4512 ft 204 kts 262°
2026-05-04 01:39 36.07366 -114.98343 4255 ft 195 kts 262°
2026-05-04 01:39 36.07366 -115.00001 4003 ft 191 kts 262°
2026-05-04 01:40 36.07365 -115.01650 3776 ft 193 kts 264°
2026-05-04 01:40 36.07367 -115.03255 3538 ft 180 kts 264°
2026-05-04 01:40 36.07370 -115.04727 3344 ft 161 kts 264°
2026-05-04 01:40 36.07369 -115.06078 3151 ft 155 kts 263°
2026-05-04 01:41 36.07368 -115.07392 2940 ft 150 kts 261°
2026-05-04 01:41 36.07365 -115.08681 2689 ft 150 kts 260°
2026-05-04 01:41 36.07367 -115.09924 2578 ft 144 kts 259°
2026-05-04 01:41 36.07369 -115.11155 2386 ft 142 kts 259°
2026-05-04 01:42 36.07363 -115.12388 2193 ft 146 kts 264°
2026-05-04 01:42 36.07357 -115.13574 2118 ft 120 kts 270°
2026-05-04 01:42 36.07380 -115.14338 2129 ft 57 kts 282°
2026-05-04 01:42 36.07498 -115.14630 2124 ft 15 kts 321°
2026-05-04 01:43 36.07517 -115.14643 2127 ft 1 kts 335°
2026-05-04 01:43 36.07523 -115.14646 2126 ft 2 kts 339°
2026-05-04 01:43 36.07543 -115.14651 2128 ft 5 kts 350°
2026-05-04 01:43 36.07604 -115.14654 2125 ft 13 kts 359°
2026-05-04 01:44 36.07720 -115.14654 2121 ft 19 kts
2026-05-04 01:44 36.07763 -115.14530 2120 ft 18 kts 95°
2026-05-04 01:44 36.07754 -115.14376 2121 ft 18 kts 93°
2026-05-04 01:44 36.07753 -115.14212 2120 ft 20 kts 89°
2026-05-04 01:45 36.07753 -115.14038 2121 ft 20 kts 90°
2026-05-04 01:45 36.07751 -115.13871 2125 ft 19 kts 90°
2026-05-04 01:45 36.07753 -115.13525 2126 ft 21 kts 90°
2026-05-04 01:46 36.07766 -115.13390 2127 ft 13 kts 47°
2026-05-04 01:46 36.07856 -115.13375 2126 ft 15 kts 359°
2026-05-04 01:46 36.07982 -115.13374 2118 ft 21 kts
2026-05-04 01:46 36.08106 -115.13390 2111 ft 15 kts 321°
2026-05-04 01:47 36.08150 -115.13468 2109 ft 6 kts 257°
2026-05-04 01:47 36.08137 -115.13484 2111 ft 1 kts 224°
2026-05-04 01:47 36.08127 -115.13496 2113 ft 3 kts 224°
2026-05-04 01:47 36.08111 -115.13515 2113 ft 2 kts 224°
2026-05-04 01:48 36.08108 -115.13519 2113 ft 0 kts 224°